Location: ???????
(38.3360°N, 23.6977°E)
Time: 22:09:18
(UTC+00:00)

Cosmos 1763 Rocket - Pass Details

Date: 17 November 2025
Orbit: 728 x 774 km, 74.0° (Epoch: 11 December)

Event Time Altitude Azimuth Distance (km) Brightness Sun altitude
Rises 15:49:55 0° 347° (NNW) 3,230 6.7 -7.9°
Reaches altitude 10° 15:52:24 10° 353° (N) 2,293 5.9 -8.4°
Maximum altitude 15:57:25 48° 67° (ENE) 983 3.7 -9.3°
Drops below altitude 10° 16:02:20 10° 142° (SE) 2,250 5.7 -10.2°
Sets 16:04:44 0° 148° (SSE) 3,162 6.5 -10.7°
